sat.trackr.live / text

‹ back to catalog

GSAT-6

NORAD 40880 · 2015-041A

PAYLOAD ACTIVE UNKNOWN

§ Identity

Operator
Country
IND
Launch date
2015-08-27
Launch site
SRILR
Launch vehicle
Mass (kg)
RCS (m²)
2.00

Purposes: comms

External: N2YO · Heavens-Above · Gunter

§ Orbital elements

Epoch: 2026-05-25T04:08:07.507968Z

Period
1,436.07 min
Inclination
1.8605°
Eccentricity
0.0003423
Mean motion
1.00273566 rev/d
Perigee alt
35,771.7 km
Apogee alt
35,800.5 km
Semi-major
42,164.2 km
B*
0.0000e+0
RAAN
82.8678°
Arg perigee
339.1314°
Mean anomaly
325.2800°
Rev number
3,936

§ Raw data

GSAT-61 40880U 15041A   26145.17230912 -.00000162  00000+0  00000+0 0  99922 40880   1.8605  82.8678 0003423 339.1314 325.2800  1.00273566 39368

JSON: /api/v1/satellites/40880 · /tle

For live sub-satellite position, see the globe view (requires WebGL).

§ Visibility from observer

Set your observer location to see the next 7 days of passes ≥ 10°. The values pass through the URL so the page stays shareable.

No JS? Fill the form by hand. The geolocation button needs JavaScript.